Home > Weather > Minamisōma > Past weeks

Flag for Japan Weather for the Past 2 Weeks in Minamisōma, Japan

Now
41 °F

Partly cloudy.


Feels Like: 33 °F
Forecast: 31 / 48 °F
Wind: 16 mph from Northwest

Location: Sendai Airport

Current Time: Feb 15, 2016 at 7:06:45 AM

Latest Report: Feb 15, 2016 at 6:00 AM


Visibility: N/A

Pressure: 29.53 "Hg

Humidity: 66%

Dew point: 30 °F

Location of MinamisōmaLocation

Historic Weather in Minamisōma — Graph

°F

Minamisōma Temperature Yesterday

Maximum temperature yesterday: 70 °F (at 1:00 PM)
Minimum temperature yesterday: 45 °F (at 6:00 AM)
Average temperature yesterday: 58 °F

High & Low Weather Summary for the Past Weeks

 TemperatureHumidityPressure
High70 °F (Feb 14, 1:00 PM)100% (Jan 30, 9:00 PM)30.51 "Hg (Jan 30, 9:00 PM)
Low23 °F (Feb 8, 6:00 AM)27% (Feb 11, 2:00 PM)29.27 "Hg (Feb 14, 2:00 PM)
Average39 °F60%30.03 "Hg
* Reported Jan 30 9:00 PM — Feb 14 9:00 PM, Minamisōma, Weather by CustomWeather, © 2016

Note: Actual official high and low records may vary slightly from our data, if they occured in-between our weather recording intervals... More about our weather records

Advertising

Minamisōma Weather History for the Previous 24 Hours

 ConditionsComfort  
Time TempWeatherWind HumidityBarometerVisibility
9:00 PM
Sun, Feb 14
54 °FPassing clouds.9 mph51%29.42 "HgN/A
8:00 PM54 °FPassing clouds.17 mph51%29.42 "HgN/A
7:00 PM57 °FPassing clouds.14 mph41%29.39 "HgN/A
6:03 PM59 °FPartly cloudy.21 mph45%29.39 "HgN/A
6:00 PM59 °FPartly cloudy.32 mph45%29.39 "HgN/A
5:02 PM61 °FPartly sunny.24 mph45%29.36 "HgN/A
5:00 PM61 °FPartly sunny.28 mph45%29.36 "HgN/A
4:00 PM64 °FPartly sunny.16 mph49%29.33 "HgN/A
3:04 PM68 °FPartly sunny.22 mph46%29.27 "HgN/A
3:00 PM68 °FPartly sunny.23 mph46%29.27 "HgN/A
2:00 PM70 °FPartly sunny.22 mph50%29.27 "HgN/A
1:00 PM70 °FPartly sunny.18 mph60%29.30 "HgN/A
12:00 PM66 °FBroken clouds.16 mph73%29.33 "HgN/A
11:00 AM57 °FFog.6 mph94%29.36 "Hg3 mi
10:00 AM50 °FSprinkles. Fog.2 mph100%29.39 "Hg2 mi
9:00 AM48 °FLight rain. Fog.3 mph94%29.42 "Hg1 mi
8:00 AM46 °FLight rain. Fog.3 mph93%29.47 "Hg1 mi
7:00 AM45 °FFog.5 mph93%29.47 "Hg1 mi
Weather by CustomWeather, © 2016

See weather overviewHow to use our weather pages